Location: Newark
(16.3678°N, 77.8722°E)
Time: 17:54:57
(UTC+00:00)

S-56A Canister/Altair - Pass Details

Date: 15 December 2019
Orbit: 634 x 2498 km, 38.9° (Epoch: 20 January)

Event Time Altitude Azimuth Distance (km) Brightness Sun altitude
Rises 11:44:59 0° 299° (WNW) 5,905 12.6 6.4°
Reaches altitude 10° 11:49:26 10° 293° (WNW) 4,693 12.2 5.4°
Maximum altitude 12:00:50 42° 228° (SW) 2,251 10.8 3.0°
Drops below altitude 10° 12:08:47 10° 160° (SSE) 3,282 10.8 1.2°
Sets 12:11:23 0° 152° (SSE) 4,021 11.2 0.7°
